Weather History for Comanche, TX

Change the Weather History Date:

Wednesday, December 26, 2012

  Actual Average (KSEP) Record (KSEP)
Temperature  
Mean Temperature 26 °F -  
Max Temperature 32 °F 52 °F 82 °F (2005)
Min Temperature 21 °F 30 °F 14 °F (1983)
Degree Days  
Heating Degree Days 38    
Moisture  
Dew Point 20 °F    
Average Humidity 75    
Maximum Humidity 80    
Minimum Humidity 64    
Precipitation  
Precipitation 0.00 in - - ()
Sea Level Pressure  
Sea Level Pressure 30.18 in    
Wind  
Wind Speed 13 mph (North)    
Max Wind Speed 22 mph    
Max Gust Speed 32 mph    
Visibility 10 miles    
Events      
Averages and records for this station are not official NWS values.
T = Trace of Precipitation, MM = Missing Value Source: NWS Daily Summary

Daily Weather History Graph

Daily Weather History Graph

Search for Another Location

Airport:

Trip Planner

Search our weather history database for the weather conditions in past years. The results will help you decide how hot, cold, wet, or windy it might be!

Date:

Astronomy

Dec. 26, 2012 Rise Set
Actual Time 7:33 AM CST 5:37 PM CST
Civil Twilight 7:06 AM CST 6:04 PM CST
Nautical Twilight 6:35 AM CST 6:35 PM CST
Astronomical Twilight 6:05 AM CST 7:04 PM CST
Moon 4:30 PM CST (12/26) 5:59 AM CST (12/26)
Length of Visible Light 10h 58m
Length of Day
10h 04m
Waxing Gibbous, 97% of the Moon is Illuminated
Dec 26
Waxing Gibbous
Dec 28
Full
Jan 4
Last Quarter
Jan 11
New
Jan 18
First Quarter

Hourly Weather History & Observations

Time (CST) Temp. Windchill Dew Point Humidity Pressure Visibility Wind Dir Wind Speed Gust Speed Precip Events Conditions
12:15 AM 26.6 °F 12.7 °F 19.4 °F 74% 30.20 in 10.0 mi NNW 20.7 mph 32.2 mph N/A   Overcast
12:35 AM 26.6 °F 12.4 °F 17.6 °F 69% 30.20 in 10.0 mi NNW 21.9 mph 31.1 mph N/A   Overcast
12:55 AM 24.8 °F 10.3 °F 17.6 °F 74% 30.19 in 10.0 mi North 20.7 mph 27.6 mph N/A   Mostly Cloudy
1:15 AM 24.8 °F 11.5 °F 17.6 °F 74% 30.19 in 10.0 mi North 17.3 mph 25.3 mph N/A   Overcast
1:35 AM 24.8 °F 11.5 °F 17.6 °F 74% 30.18 in 10.0 mi NNW 17.3 mph 25.3 mph N/A   Overcast
1:55 AM 23.0 °F 11.1 °F 17.6 °F 80% 30.18 in 10.0 mi North 12.7 mph 26.5 mph N/A   Scattered Clouds
2:15 AM 23.0 °F 9.6 °F 17.6 °F 80% 30.19 in 10.0 mi NNW 16.1 mph 21.9 mph N/A   Clear
2:35 AM 23.0 °F 11.7 °F 15.8 °F 74% 30.19 in 10.0 mi NNW 11.5 mph - N/A   Clear
2:55 AM 23.0 °F 11.1 °F 15.8 °F 74% 30.20 in 10.0 mi NNW 12.7 mph 21.9 mph N/A   Scattered Clouds
3:15 AM 21.2 °F 8.3 °F 14.0 °F 74% 30.20 in 10.0 mi NNW 13.8 mph - N/A   Clear
3:35 AM 21.2 °F 9.5 °F 14.0 °F 74% 30.22 in 10.0 mi NNW 11.5 mph 25.3 mph N/A   Scattered Clouds
3:55 AM 21.2 °F 7.8 °F 14.0 °F 74% 30.23 in 10.0 mi NNW 15.0 mph - N/A   Mostly Cloudy
4:15 AM 21.2 °F 10.1 °F 15.8 °F 80% 30.23 in 10.0 mi NW 10.4 mph 19.6 mph N/A   Overcast
4:35 AM 21.2 °F 6.4 °F 15.8 °F 80% 30.23 in 10.0 mi NNW 18.4 mph 23.0 mph N/A   Overcast
5:15 AM 21.2 °F 6.4 °F 15.8 °F 80% 30.23 in 10.0 mi NNW 18.4 mph 23.0 mph N/A   Overcast
5:35 AM 21.2 °F 7.3 °F 15.8 °F 80% 30.23 in 10.0 mi NNW 16.1 mph 23.0 mph N/A   Overcast
5:55 AM 21.2 °F 6.8 °F 15.8 °F 80% 30.23 in 10.0 mi NNW 17.3 mph 24.2 mph N/A   Overcast
6:15 AM 21.2 °F 7.3 °F 15.8 °F 80% 30.23 in 10.0 mi NNW 16.1 mph 21.9 mph N/A   Overcast
6:35 AM 21.2 °F 8.9 °F 15.8 °F 80% 30.23 in 10.0 mi NNW 12.7 mph 17.3 mph N/A   Overcast
6:55 AM 21.2 °F 7.3 °F 15.8 °F 80% 30.23 in 10.0 mi NNW 16.1 mph 20.7 mph N/A   Overcast
7:15 AM 21.2 °F 7.3 °F 15.8 °F 80% 30.24 in 10.0 mi NNW 16.1 mph 21.9 mph N/A   Overcast
7:35 AM 21.2 °F 8.3 °F 15.8 °F 80% 30.26 in 10.0 mi NNW 13.8 mph 18.4 mph N/A   Overcast
7:55 AM 21.2 °F 8.3 °F 15.8 °F 80% 30.26 in 10.0 mi NNW 13.8 mph 18.4 mph N/A   Overcast
8:15 AM 21.2 °F 9.5 °F 15.8 °F 80% 30.26 in 10.0 mi NNW 11.5 mph - N/A   Overcast
8:35 AM 23.0 °F 10.6 °F 17.6 °F 80% 30.26 in 10.0 mi NNW 13.8 mph - N/A   Overcast
8:55 AM 23.0 °F 9.6 °F 17.6 °F 80% 30.26 in 10.0 mi NNW 16.1 mph 20.7 mph N/A   Overcast
9:15 AM 23.0 °F 11.7 °F 17.6 °F 80% 30.27 in 10.0 mi NNW 11.5 mph 16.1 mph N/A   Overcast
9:35 AM 23.0 °F 11.7 °F 17.6 °F 80% 30.28 in 10.0 mi NNW 11.5 mph 17.3 mph N/A   Overcast
9:55 AM 24.8 °F 15.3 °F 19.4 °F 80% 30.28 in 10.0 mi NNW 9.2 mph - N/A   Overcast
10:15 AM 24.8 °F 12.9 °F 19.4 °F 80% 30.28 in 10.0 mi NNW 13.8 mph 17.3 mph N/A   Overcast
10:35 AM 26.6 °F 15.2 °F 19.4 °F 74% 30.27 in 10.0 mi NNE 13.8 mph 18.4 mph N/A   Overcast
10:55 AM 26.6 °F 15.2 °F 19.4 °F 74% 30.27 in 10.0 mi North 13.8 mph - N/A   Scattered Clouds
11:15 AM 26.6 °F 16.2 °F 19.4 °F 74% 30.27 in 10.0 mi North 11.5 mph 18.4 mph N/A   Scattered Clouds
11:35 AM 28.4 °F 23.3 °F 19.4 °F 69% 30.27 in 10.0 mi NW 4.6 mph - N/A   Scattered Clouds
11:55 AM 28.4 °F 20.4 °F 19.4 °F 69% 30.27 in 10.0 mi NW 8.1 mph - N/A   Mostly Cloudy
12:15 PM 28.4 °F 19.7 °F 21.2 °F 74% 30.25 in 10.0 mi NNW 9.2 mph - N/A   Scattered Clouds
12:35 PM 30.2 °F 21.9 °F 21.2 °F 69% 30.21 in 10.0 mi North 9.2 mph - N/A   Clear
12:55 PM 30.2 °F 22.6 °F 21.2 °F 69% 30.21 in 10.0 mi North 8.1 mph - N/A   Clear
1:15 PM 30.2 °F 21.3 °F 21.2 °F 69% 30.19 in 10.0 mi North 10.4 mph - N/A   Clear
1:35 PM 32.0 °F 25.6 °F 21.2 °F 64% 30.18 in 10.0 mi North 6.9 mph - N/A   Clear
1:55 PM 32.0 °F 27.5 °F 23.0 °F 69% 30.19 in 10.0 mi NNW 4.6 mph - N/A   Clear
2:15 PM 32.0 °F 26.4 °F 21.2 °F 64% 30.17 in 10.0 mi NNE 5.8 mph - N/A   Clear
2:35 PM 32.0 °F 28.7 °F 21.2 °F 64% 30.17 in 10.0 mi North 3.5 mph - N/A   Clear
2:55 PM 32.0 °F 27.5 °F 21.2 °F 64% 30.16 in 10.0 mi NNE 4.6 mph - N/A   Clear
3:15 PM 32.0 °F 26.4 °F 21.2 °F 64% 30.16 in 10.0 mi NE 5.8 mph - N/A   Clear
3:35 PM 32.0 °F - 21.2 °F 64% 30.15 in 10.0 mi Calm Calm - N/A   Clear
3:55 PM 32.0 °F - 23.0 °F 69% 30.15 in 10.0 mi Calm Calm - N/A   Clear
4:15 PM 32.0 °F 26.4 °F 23.0 °F 69% 30.14 in 10.0 mi NE 5.8 mph - N/A   Clear
4:35 PM 32.0 °F 28.7 °F 23.0 °F 69% 30.13 in 10.0 mi NE 3.5 mph - N/A   Clear
4:55 PM 32.0 °F 25.6 °F 23.0 °F 69% 30.12 in 10.0 mi NE 6.9 mph - N/A   Clear
5:15 PM 32.0 °F 28.7 °F 23.0 °F 69% 30.12 in 10.0 mi ENE 3.5 mph - N/A   Clear
5:35 PM 32.0 °F - 23.0 °F 69% 30.11 in 10.0 mi Calm Calm - N/A   Clear
5:55 PM 32.0 °F - 23.0 °F 69% 30.11 in 10.0 mi Calm Calm - N/A   Clear
6:15 PM 32.0 °F 28.7 °F 23.0 °F 69% 30.11 in 10.0 mi NE 3.5 mph - N/A   Clear
6:55 PM 32.0 °F - 23.0 °F 69% 30.11 in 10.0 mi Calm Calm - N/A   Clear
7:15 PM 32.0 °F - 23.0 °F 69% 30.11 in 10.0 mi North - - N/A   Clear
7:35 PM 30.2 °F - 23.0 °F 75% 30.12 in 10.0 mi North - - N/A   Clear
7:55 PM 30.2 °F - 23.0 °F 75% 30.11 in 10.0 mi North - - N/A   Clear
8:15 PM 30.2 °F - 23.0 °F 75% 30.11 in 10.0 mi North - - N/A   Clear
8:35 PM 28.4 °F 23.3 °F 23.0 °F 80% 30.11 in 10.0 mi SSE 4.6 mph - N/A   Clear
8:55 PM 28.4 °F - 23.0 °F 80% 30.10 in 10.0 mi North - - N/A   Clear
9:15 PM 28.4 °F - 23.0 °F 80% 30.10 in 10.0 mi North - - N/A   Clear
9:35 PM 28.4 °F - 23.0 °F 80% 30.09 in 10.0 mi North - - N/A   Clear
9:55 PM 28.4 °F - 23.0 °F 80% 30.09 in 10.0 mi North - - N/A   Clear
10:15 PM 28.4 °F 23.3 °F 23.0 °F 80% 30.10 in 10.0 mi SSE 4.6 mph - N/A   Clear
10:35 PM 28.4 °F 22.2 °F 23.0 °F 80% 30.10 in 10.0 mi SSE 5.8 mph - N/A   Clear
10:55 PM 28.4 °F 21.2 °F 23.0 °F 80% 30.10 in 10.0 mi SE 6.9 mph - N/A   Clear
11:15 PM 28.4 °F 20.4 °F 23.0 °F 80% 30.08 in 10.0 mi SE 8.1 mph - N/A   Clear
11:35 PM 28.4 °F 20.4 °F 23.0 °F 80% 30.08 in 10.0 mi SSE 8.1 mph - N/A   Clear
11:55 PM 28.4 °F 22.2 °F 23.0 °F 80% 30.07 in 10.0 mi SSE 5.8 mph - N/A   Clear